#timestamp,LO_Frequency,Hit,StdDev 
1581998415.6,286047001.2,N
1581998435.5,286047000.5,N
1581998455.3,286047001.1,N
1581998475.1,286046999.4,N
1581998495.9,286046996.5,N
1581998515.7,286046999.6,N
1581998535.6,286046996.7,N
1581998555.4,286046998.9,N
1581998575.2,286046998.5,N
1581998595.1,286046998.6,N
1581998596.0,286046998.6,N
1581998615.8,286046998.1,N
1581998635.7,286046998.8,N
1581998655.5,286046998.7,N
1581998675.3,286046999.2,N
1581998695.2,286046997.0,N
1581998715.0,286046996.7,N
1581998715.9,286046996.7,N
1581998735.7,286046997.2,N
1581998755.6,286046997.1,N
1581998775.4,286046997.2,N
1581998795.3,286046995.3,Y
1581998815.1,286046999.0,P
1581998835.8,286046998.3,P
1581998855.7,286046998.9,P
1581998875.5,286046998.1,Y
1581998895.4,286047002.1,P
1581998915.2,286047002.3,N
1581998935.0,286047001.4,N
1581998935.9,286047001.4,N
1581998955.8,286047002.1,N
1581998975.6,286047002.2,N
1581998995.4,286047001.5,N
1581999015.3,286047002.8,N
1581999035.1,286046999.8,N
1581999055.9,286047000.6,N
1581999075.7,286047000.3,N
1581999095.5,286047000.4,N
1581999115.4,286047000.7,N
1581999135.2,286047000.5,N
1581999155.1,286047000.9,N
1581999156.0,286047000.9,N
1581999175.8,286047000.5,N
1581999195.6,286046999.9,N
1581999215.5,286047001.0,N
1581999235.3,286047001.2,N
1581999255.1,286047000.1,N
1581999275.9,286047000.0,N
1581999295.7,286047000.0,N
1581999315.6,286047000.5,N
1581999335.4,286046999.1,N
1581999355.2,286046998.8,N
1581999375.1,286047000.0,N
1581999376.0,286047000.0,N
1581999395.8,286047000.0,N
1581999415.6,286046999.9,N
1581999435.5,286047002.1,N
1581999455.3,286046999.8,N
1581999475.2,286046999.9,N
1581999495.9,286046999.7,N
1581999515.7,286047000.1,N
1581999535.6,286047000.4,N
1581999555.4,286047000.0,N
1581999575.3,286047000.2,N
1581999595.1,286046999.8,N
1581999596.0,286046999.8,N
1581999615.8,286046999.7,N
1581999635.7,286047002.0,Y
1581999655.5,286047003.7,P
1581999675.3,286047001.3,N
1581999695.2,286047003.9,N
1581999715.0,286047001.8,N
1581999715.9,286047001.8,N
1581999735.8,286047001.6,N
1581999755.6,286047002.3,N
1581999775.4,286047000.1,N
1581999795.3,286047000.6,N
1581999815.1,286047000.8,N
1581999835.9,286046998.9,N
1581999855.7,286046999.3,N
1581999875.5,286046999.2,N
1581999895.4,286046998.9,N
1581999915.2,286047000.8,N
1581999935.0,286047000.8,N
1581999935.9,286047000.8,N
1581999955.8,286047000.1,N
1581999975.6,286047000.4,N
1581999995.5,286046999.7,N
1582000015.3,286047001.6,N
1582000035.1,286047001.7,N
1582000055.9,286047003.8,N
1582000075.7,286047004.0,N
1582000095.6,286047003.2,N
1582000115.4,286047004.2,N
1582000135.2,286047002.5,N
1582000155.1,286047000.2,N
1582000156.0,286047000.2,N
1582000175.8,286047002.2,N
1582000195.7,286047001.5,N
1582000215.5,286047002.5,N
1582000235.3,286047001.5,N
1582000255.2,286047002.6,N
1582000275.0,286046999.7,N
1582000275.9,286046999.7,N
1582000295.7,286047001.8,N
1582000315.6,286047001.5,N
1582000335.4,286047003.9,N
1582000355.3,286047001.5,N
1582000375.1,286047003.6,N
1582000376.0,286047003.6,N
1582000395.8,286047003.9,N
1582000415.7,286047001.7,N
1582000435.5,286047001.5,N
1582000455.4,286047001.6,N
1582000475.2,286047001.7,N
1582000495.0,286047004.1,N
1582000495.9,286047004.1,N
1582000515.8,286047002.0,N
1582000535.6,286047001.8,N
1582000555.5,286047004.4,Y
1582000575.3,286047000.8,P
1582000595.1,286047000.1,N
1582000615.9,286046999.9,N
1582000635.7,286047000.2,N
1582000655.5,286047000.0,N
1582000675.4,286047000.7,N
1582000695.2,286046999.7,N
1582000715.1,286047000.7,N
1582000716.0,286047000.7,N
1582000735.8,286047000.4,N
1582000755.6,286047002.7,Y
1582000775.5,286046998.1,P
1582000795.3,286046998.1,N
1582000815.2,286047001.2,N
1582000835.9,286047002.3,N
1582000855.7,286047000.1,N
1582000875.6,286047002.2,N
1582000895.4,286047001.7,N
1582000915.2,286047001.4,N
1582000935.1,286047000.2,N
1582000936.0,286047000.2,N
1582000955.8,286046999.9,N
1582000975.7,286047000.0,N
1582000995.5,286047001.0,N
1582001015.3,286047000.5,N
1582001035.2,286047000.6,N
1582001055.0,286047001.0,N
1582001055.9,286047001.0,N
1582001075.7,286046999.8,N
1582001095.6,286047000.6,N
1582001115.4,286047002.2,N
1582001135.3,286047002.2,N
1582001155.1,286047001.9,N
1582001175.8,286047002.6,N
1582001195.7,286047001.3,N
1582001215.5,286047001.7,N
1582001235.4,286047003.8,Y
1582001255.2,286047002.3,P
1582001275.0,286047002.8,P
1582001275.9,286047002.8,P
1582001295.8,286046999.9,N
1582001315.6,286047000.1,N
1582001365.5,286047000.2,E
1582001375.4,286047000.0,N
1582001395.2,286046999.4,P
1582001415.1,286046999.4,N
1582001416.0,286046999.4,N
1582001435.8,286046999.3,N
1582001455.7,286046998.1,Y
1582001475.5,286047002.7,P
1582001495.3,286047002.7,N
1582001515.2,286047002.7,N
1582001535.0,286047002.0,N
1582001535.9,286047002.0,N
1582001555.8,286047004.3,Y
1582001575.6,286047000.3,P
1582001595.4,286046999.7,N
1582001615.3,286047002.2,N
1582001635.1,286047002.8,N
1582001655.8,286047002.5,N
1582001675.7,286047002.4,N
1582001695.5,286047002.2,N
1582001715.4,286047001.8,N
1582001735.2,286047004.3,Y
1582001755.0,286047001.0,P
1582001755.9,286047001.0,N
1582001775.8,286046999.0,N
1582001795.6,286046996.9,Y
1582001815.5,286046997.7,P
1582001835.3,286046997.8,N
1582001855.1,286046996.4,N
1582001875.9,286046996.2,N
1582001895.7,286046995.3,N
1582001915.6,286046995.7,N
1582001935.4,286046995.5,N
1582001955.2,286046996.8,N
1582001975.1,286046997.3,N
1582001976.0,286046997.3,N
1582001995.8,286046997.7,N
